STARLINK-36217, 67120

Orbit data source: Space-Track

STARLINK-36217, 67120 is a payload satellite owned by SpaceX/Seattle (US) in LEO that was launched on Mon, 15 Dec 2025 UTC via an FALCON 9 launch vehicle from the Air Force Eastern Test Range (AFETR). Payload-class satellites include a variety of spacecraft equipped with specific instruments for various scientific and technological missions. These include communications satellites like Starlink; space stations such as the ISS; scientific satellites like the Hubble; Earth observation satellites from companies like Planet Labs, Umbra, and HawkEye 360; GPS; miniature CubeSats for education and research; and military/defense satellites.

Not visible in the next 10 days
Identifier
67120, 2025-299U
Orbit
LEO
Country
Flag of USUS
Related business
Manufacturer
SpaceX/Seattle
Mission
Operational spacecraft
Bus & Motor
STARLINK V2MO, Unknown motor
Mass
575 kg wet, ~530 kg dry
Launch date (UTC)
2025-12-15 (1 week ago)
Launch vehicle
FALCON 9
Launch site
Air Force Eastern Test Range (AFETR)
Object type
Payload
Rocket body
Debris
Shape & HBR
Unknown
Radar Cross Section
RCS unknown

Expand to show TLE details & history
Last TLE update: 5 hours ago

TLE from 5 hours ago
0 STARLINK-36217
1 67120U 25299U   25355.50002315 -.01573256  71837-3 -37762-2 0  9996
2 67120  42.9998 263.2057 0002377 265.9351  75.1338 15.95670943  2226
Epoch: 2025-12-21T12:00Z
TLE epoch observation values (Epoch: 2025-12-21T12:00:02.000Z)
Latitude
-12.89654°
Longitude
-21.24568°
Altitude
288.362 km
Speed
7.736 km/s
True Right ascension
16h 36m 17s
True Declination
-12° 49' 00"
Sunlit
Object was in daylight at epoch
Visualization orbit readout
Latitude
Unknown
Longitude
Unknown
Altitude
Unknown
Speed
Unknown
Apparent Right ascension
Unknown
Apparent Declination
Unknown
Sunlit
N/A
Visualization observer readout
Local Sidereal Time
15:46:40
Azimuth
Unknown
Elevation
Unknown
Doppler factor
Unknown
Orbital elements
Apogee altitude
290.033 km
Perigee altitude
286.863 km
Semi-major axis
6,666.585 km
Eccentricity
0.00024
Inclination
42.9998°
RAAN
263.2057°
Arg. of periapsis
265.9351°
True anomaly
75.16013°
Mean anomaly
75.1338°
Eccentric anomaly
75.14696°
Mean motion
3.98738 °/min
Orbital period
90.28 mins
BSTAR
-0.0037762
Loading maneuver chart data...
Computing Atmospheric mass density...
Loading historical data...
Loading historical data...
Loading historical data...
Loading historical data...
Loading historical data...
Loading historical data...
Loading historical data...

Documentation

Showing up to 5 results
|